time, Switch, Flow(0), Analog(2)
yyyy/mm/dd HH:MM:SS.fff, True=FILTERED|False=TOTAL, L/min, V
2023/06/27 23:00:05.439, True, 2.022, 0.126802
2023/06/27 23:00:05.943, True, 1.990, 0.128481
2023/06/27 23:00:06.447, True, 2.321, 0.127108
2023/06/27 23:00:06.951, True, 1.990, 0.126574
2023/06/27 23:00:07.447, True, 2.022, 0.127947
2023/06/27 23:00:07.951, True, 1.990, 0.129091
2023/06/27 23:00:08.447, True, 2.022, 0.128176
2023/06/27 23:00:08.951, True, 1.990, 0.126955
2023/06/27 23:00:09.455, True, 1.989, 0.128862
2023/06/27 23:00:09.951, True, 2.359, 0.129168
2023/06/27 23:00:10.455, True, 1.992, 0.128634
2023/06/27 23:00:10.959, True, 1.988, 0.126955
2023/06/27 23:00:11.455, True, 2.359, 0.128328
2023/06/27 23:00:11.959, True, 1.990, 0.128786
2023/06/27 23:00:12.463, True, 1.990, 0.129168
2023/06/27 23:00:12.959, True, 2.022, 0.129473
2023/06/27 23:00:13.463, True, 1.990, 0.128252
2023/06/27 23:00:13.967, True, 2.321, 0.127718
2023/06/27 23:00:14.463, True, 2.022, 0.128939
2023/06/27 23:00:14.967, True, 1.990, 0.127184
2023/06/27 23:00:15.471, True, 1.989, 0.126879
2023/06/27 23:00:15.967, True, 2.022, 0.127413
2023/06/27 23:00:16.471, True, 1.989, 0.126726
2023/06/27 23:00:16.967, True, 2.023, 0.128786
2023/06/27 23:00:17.471, True, 1.990, 0.127260
2023/06/27 23:00:17.975, True, 2.321, 0.127489
2023/06/27 23:00:18.471, True, 1.685, 0.127260
2023/06/27 23:00:18.975, True, 2.324, 0.127489
2023/06/27 23:00:19.479, True, 1.987, 0.127947
2023/06/27 23:00:19.982, True, 1.658, 0.127108
2023/06/27 23:00:20.479, True, 2.022, 0.127871
2023/06/27 23:00:20.983, True, 1.990, 0.129702
2023/06/27 23:00:21.487, True, 1.990, 0.128634
2023/06/27 23:00:21.983, True, 2.024, 0.127031
2023/06/27 23:00:22.487, True, 1.988, 0.128481
2023/06/27 23:00:22.991, True, 1.990, 0.128023
2023/06/27 23:00:23.487, True, 2.022, 0.126040
2023/06/27 23:00:23.991, True, 1.990, 0.126574
2023/06/27 23:00:24.495, True, 1.993, 0.129931
2023/06/27 23:00:24.991, True, 2.018, 0.129397
2023/06/27 23:00:25.495, True, 2.321, 0.128557
2023/06/27 23:00:25.999, True, 1.990, 0.128862
2023/06/27 23:00:26.495, True, 1.687, 0.127489
2023/06/27 23:00:26.999, True, 1.986, 0.127947
2023/06/27 23:00:27.503, True, 1.990, 0.127413
2023/06/27 23:00:27.999, True, 2.359, 0.129244
2023/06/27 23:00:28.503, True, 1.989, 0.125811
2023/06/27 23:00:28.999, True, 2.022, 0.129397
2023/06/27 23:00:29.503, True, 1.990, 0.128176
2023/06/27 23:00:30.007, True, 1.990, 0.126955
2023/06/27 23:00:30.511, True, 2.321, 0.129473
2023/06/27 23:00:31.007, True, 2.022, 0.127565
2023/06/27 23:00:31.511, True, 1.990, 0.127489
2023/06/27 23:00:32.015, True, 1.990, 0.127947
2023/06/27 23:00:32.510, True, 2.022, 0.130159
2023/06/27 23:00:33.014, True, 2.321, 0.130999
2023/06/27 23:00:33.518, True, 1.990, 0.129473
2023/06/27 23:00:34.015, True, 2.358, 0.128481
2023/06/27 23:00:34.519, True, 1.990, 0.130922
2023/06/27 23:00:35.023, True, 1.658, 0.128939
2023/06/27 23:00:35.518, True, 2.026, 0.130694
2023/06/27 23:00:36.023, True, 1.986, 0.130846
2023/06/27 23:00:36.527, True, 1.990, 0.127489
2023/06/27 23:00:37.023, True, 2.022, 0.130465
2023/06/27 23:00:37.527, True, 1.990, 0.131533
2023/06/27 23:00:38.031, True, 1.658, 0.128481
2023/06/27 23:00:38.527, True, 2.022, 0.129320
2023/06/27 23:00:39.030, True, 1.658, 0.131609
2023/06/27 23:00:39.534, True, 1.990, 0.131456
2023/06/27 23:00:40.030, True, 2.023, 0.132982
2023/06/27 23:00:40.535, True, 1.988, 0.131838
2023/06/27 23:00:41.039, True, 1.658, 0.130694
2023/06/27 23:00:41.535, True, 2.022, 0.133211
2023/06/27 23:00:42.039, True, 1.989, 0.133516
2023/06/27 23:00:42.543, True, 1.990, 0.136339
2023/06/27 23:00:43.046, True, 2.321, 0.135424
2023/06/27 23:00:43.543, True, 2.022, 0.133745
2023/06/27 23:00:44.047, True, 1.990, 0.136797
2023/06/27 23:00:44.542, True, 2.025, 0.134890
2023/06/27 23:00:45.047, True, 1.986, 0.134585
2023/06/27 23:00:45.551, True, 1.990, 0.134813
2023/06/27 23:00:46.047, True, 2.022, 0.135424
2023/06/27 23:00:46.551, True, 1.990, 0.135576
2023/06/27 23:00:47.055, True, 1.990, 0.136187
2023/06/27 23:00:47.551, True, 1.685, 0.134127
2023/06/27 23:00:48.055, True, 1.990, 0.136645
2023/06/27 23:00:48.559, True, 1.990, 0.134966
2023/06/27 23:00:49.054, True, 2.022, 0.137026
2023/06/27 23:00:49.559, True, 1.989, 0.133974
2023/06/27 23:00:50.063, True, 1.990, 0.136568
2023/06/27 23:00:50.558, True, 2.022, 0.137865
2023/06/27 23:00:51.063, True, 1.659, 0.135805
2023/06/27 23:00:51.567, True, 1.989, 0.137407
2023/06/27 23:00:52.063, True, 2.021, 0.133593
2023/06/27 23:00:52.566, True, 1.990, 0.137484
2023/06/27 23:00:53.071, True, 1.990, 0.135729
2023/06/27 23:00:53.566, True, 2.022, 0.133898
2023/06/27 23:00:54.071, True, 1.990, 0.136339
2023/06/27 23:00:54.574, True, 1.990, 0.136568
2023/06/27 23:00:55.071, True, 2.022, 0.134813
2023/06/27 23:00:55.574, True, 1.989, 0.136187
2023/06/27 23:00:56.079, True, 1.990, 0.135882
2023/06/27 23:00:56.575, True, 2.022, 0.136492
2023/06/27 23:00:57.079, True, 1.990, 0.136797
2023/06/27 23:00:57.582, True, 1.990, 0.137407
2023/06/27 23:00:58.078, True, 2.022, 0.136492
2023/06/27 23:00:58.583, True, 1.990, 0.136645
2023/06/27 23:00:59.087, True, 1.658, 0.136187
2023/06/27 23:00:59.582, True, 2.359, 0.136492
2023/06/27 23:01:00.086, True, 1.993, 0.137102
2023/06/27 23:01:00.583, True, 2.023, 0.137865
2023/06/27 23:01:01.085, True, 1.987, 0.137789
2023/06/27 23:01:01.590, True, 1.656, 0.137331
2023/06/27 23:01:02.086, True, 2.022, 0.138628
2023/06/27 23:01:02.591, True, 1.990, 0.137713
2023/06/27 23:01:03.094, True, 1.990, 0.137179
2023/06/27 23:01:03.591, True, 2.023, 0.135042
2023/06/27 23:01:04.094, True, 1.988, 0.138018
2023/06/27 23:01:04.599, True, 1.658, 0.137713
2023/06/27 23:01:05.094, True, 2.022, 0.137407
2023/06/27 23:01:05.598, True, 1.990, 0.136263
2023/06/27 23:01:06.103, True, 1.990, 0.136263
2023/06/27 23:01:06.599, True, 2.022, 0.136950
2023/06/27 23:01:07.102, True, 1.990, 0.137102
2023/06/27 23:01:07.607, True, 1.989, 0.136263
2023/06/27 23:01:08.110, True, 1.660, 0.136645
2023/06/27 23:01:08.607, True, 2.019, 0.136950
2023/06/27 23:01:09.111, True, 1.991, 0.137560
2023/06/27 23:01:09.607, True, 2.022, 0.133822
2023/06/27 23:01:10.111, True, 1.988, 0.138170
2023/06/27 23:01:10.615, True, 1.991, 0.137179
2023/06/27 23:01:11.110, True, 2.022, 0.139239
2023/06/27 23:01:11.614, True, 1.990, 0.136950
2023/06/27 23:01:12.119, True, 1.988, 0.138247
2023/06/27 23:01:12.615, True, 2.022, 0.135576
2023/06/27 23:01:13.118, True, 1.990, 0.136034
2023/06/27 23:01:13.623, True, 1.991, 0.139620
2023/06/27 23:01:14.119, True, 2.020, 0.137484
2023/06/27 23:01:14.622, True, 1.990, 0.137331
2023/06/27 23:01:15.127, True, 1.990, 0.138552
2023/06/27 23:01:15.623, True, 1.687, 0.135424
2023/06/27 23:01:16.127, True, 2.318, 0.136797
2023/06/27 23:01:16.631, True, 1.992, 0.135424
2023/06/27 23:01:17.134, True, 1.990, 0.136110
2023/06/27 23:01:17.630, True, 2.019, 0.136034
2023/06/27 23:01:18.134, True, 1.990, 0.135271
2023/06/27 23:01:18.638, True, 1.992, 0.138781
2023/06/27 23:01:19.134, True, 2.018, 0.136797
2023/06/27 23:01:19.638, True, 1.990, 0.135500
2023/06/27 23:01:20.142, True, 1.990, 0.138399
2023/06/27 23:01:20.638, True, 2.359, 0.133822
2023/06/27 23:01:21.142, True, 1.990, 0.137484
2023/06/27 23:01:21.646, True, 1.990, 0.136721
2023/06/27 23:01:22.142, True, 2.024, 0.136721
2023/06/27 23:01:22.646, True, 1.988, 0.136416
2023/06/27 23:01:23.150, True, 1.990, 0.138323
2023/06/27 23:01:23.646, True, 1.685, 0.136034
2023/06/27 23:01:24.150, True, 1.992, 0.137102
2023/06/27 23:01:24.655, True, 1.987, 0.135805
2023/06/27 23:01:25.150, True, 2.022, 0.135576
2023/06/27 23:01:25.654, True, 1.990, 0.136873
2023/06/27 23:01:26.158, True, 2.321, 0.135882
2023/06/27 23:01:26.654, True, 2.022, 0.134127
2023/06/27 23:01:27.158, True, 1.990, 0.137942
2023/06/27 23:01:27.654, True, 2.023, 0.135576
2023/06/27 23:01:28.158, True, 2.320, 0.138933
2023/06/27 23:01:28.662, True, 1.990, 0.137407
2023/06/27 23:01:29.158, True, 1.685, 0.135576
2023/06/27 23:01:29.662, True, 1.990, 0.136339
2023/06/27 23:01:30.166, True, 2.321, 0.137484
2023/06/27 23:01:30.662, True, 2.022, 0.136492
2023/06/27 23:01:31.166, True, 1.990, 0.134203
2023/06/27 23:01:31.662, True, 2.021, 0.136797
2023/06/27 23:01:32.166, True, 1.993, 0.135653
2023/06/27 23:01:32.670, True, 1.986, 0.133745
2023/06/27 23:01:33.166, True, 2.022, 0.136110
2023/06/27 23:01:33.670, True, 1.989, 0.136721
2023/06/27 23:01:34.174, True, 1.990, 0.135729
2023/06/27 23:01:34.670, True, 2.022, 0.137331
2023/06/27 23:01:35.174, True, 1.990, 0.134585
2023/06/27 23:01:35.678, True, 1.990, 0.137789
2023/06/27 23:01:36.174, True, 1.685, 0.134737
2023/06/27 23:01:36.678, True, 1.990, 0.135882
2023/06/27 23:01:37.182, True, 1.989, 0.136873
2023/06/27 23:01:37.678, True, 2.022, 0.134966
2023/06/27 23:01:38.182, True, 1.990, 0.137331
2023/06/27 23:01:38.686, True, 1.989, 0.135424
2023/06/27 23:01:39.182, True, 2.022, 0.135729
2023/06/27 23:01:39.686, True, 1.990, 0.133898
2023/06/27 23:01:40.190, True, 2.321, 0.136263
2023/06/27 23:01:40.686, True, 2.022, 0.135958
2023/06/27 23:01:41.190, True, 1.990, 0.135042
2023/06/27 23:01:41.694, True, 1.990, 0.134279
2023/06/27 23:01:42.190, True, 2.022, 0.133669
2023/06/27 23:01:42.694, True, 1.990, 0.133898
2023/06/27 23:01:43.198, True, 1.990, 0.134508
2023/06/27 23:01:43.694, True, 2.022, 0.137102
2023/06/27 23:01:44.198, True, 2.321, 0.136645
2023/06/27 23:01:44.702, True, 1.992, 0.134966
2023/06/27 23:01:45.198, True, 2.019, 0.135500
2023/06/27 23:01:45.702, True, 1.990, 0.134127
2023/06/27 23:01:46.206, True, 2.321, 0.133745
2023/06/27 23:01:46.702, True, 2.022, 0.138628
2023/06/27 23:01:47.206, True, 1.990, 0.136873
2023/06/27 23:01:47.710, True, 1.990, 0.136797
2023/06/27 23:01:48.206, True, 1.685, 0.135424
2023/06/27 23:01:48.710, True, 1.990, 0.135729
2023/06/27 23:01:49.214, True, 1.990, 0.135576
2023/06/27 23:01:49.710, True, 2.022, 0.135119
2023/06/27 23:01:50.214, True, 1.990, 0.136416
2023/06/27 23:01:50.710, True, 2.022, 0.135119
2023/06/27 23:01:51.214, True, 1.989, 0.135119
2023/06/27 23:01:51.718, True, 1.993, 0.133822
2023/06/27 23:01:52.222, True, 1.987, 0.134737
2023/06/27 23:01:52.718, True, 2.022, 0.134966
2023/06/27 23:01:53.222, True, 1.990, 0.134127
2023/06/27 23:01:53.726, True, 1.989, 0.134585
2023/06/27 23:01:54.222, True, 2.022, 0.134661
2023/06/27 23:01:54.726, True, 1.990, 0.134661
2023/06/27 23:01:55.230, True, 2.321, 0.133898
2023/06/27 23:01:55.726, True, 1.685, 0.136110
2023/06/27 23:01:56.230, True, 1.990, 0.135653
2023/06/27 23:01:56.734, True, 1.990, 0.134813
2023/06/27 23:01:57.230, True, 2.022, 0.136034
2023/06/27 23:01:57.734, True, 2.321, 0.134203
2023/06/27 23:01:58.230, True, 2.022, 0.134890
2023/06/27 23:01:58.734, True, 1.990, 0.134737
2023/06/27 23:01:59.238, True, 1.990, 0.133669
2023/06/27 23:01:59.734, True, 1.684, 0.132525
2023/06/27 23:02:00.238, True, 1.990, 0.134813
2023/06/27 23:02:00.742, True, 1.990, 0.133669
2023/06/27 23:02:01.238, True, 2.022, 0.133974
2023/06/27 23:02:01.742, True, 1.990, 0.135271
2023/06/27 23:02:02.246, True, 1.990, 0.136110
2023/06/27 23:02:02.742, True, 2.022, 0.134890
2023/06/27 23:02:03.246, True, 1.990, 0.135958
2023/06/27 23:02:03.750, True, 1.990, 0.132525
2023/06/27 23:02:04.246, True, 2.022, 0.135119
2023/06/27 23:02:04.750, True, 1.989, 0.133593
2023/06/27 23:02:05.254, True, 1.992, 0.133898
2023/06/27 23:02:05.750, True, 2.019, 0.133516
2023/06/27 23:02:06.254, True, 1.990, 0.134051
2023/06/27 23:02:06.758, True, 1.990, 0.136873
2023/06/27 23:02:07.254, True, 2.022, 0.132677
2023/06/27 23:02:07.758, True, 1.990, 0.134813
2023/06/27 23:02:08.262, True, 1.990, 0.133516
2023/06/27 23:02:08.758, True, 1.685, 0.134051
2023/06/27 23:02:09.262, True, 1.990, 0.133745
2023/06/27 23:02:09.766, True, 1.990, 0.133516
2023/06/27 23:02:10.262, True, 2.022, 0.133211
2023/06/27 23:02:10.766, True, 1.990, 0.135882
2023/06/27 23:02:11.270, True, 1.990, 0.133211
2023/06/27 23:02:11.766, True, 2.022, 0.132906
2023/06/27 23:02:12.270, True, 1.990, 0.135119
2023/06/27 23:02:12.774, True, 1.990, 0.132677
2023/06/27 23:02:13.270, True, 2.022, 0.135576
2023/06/27 23:02:13.774, True, 1.990, 0.135576
2023/06/27 23:02:14.278, True, 1.990, 0.131151
2023/06/27 23:02:14.774, True, 2.022, 0.133288
2023/06/27 23:02:15.278, True, 1.990, 0.134661
2023/06/27 23:02:15.782, True, 1.990, 0.132982
2023/06/27 23:02:16.278, True, 2.022, 0.133974
2023/06/27 23:02:16.782, True, 1.990, 0.133593
2023/06/27 23:02:17.286, True, 1.990, 0.132982
2023/06/27 23:02:17.782, True, 2.022, 0.133516
2023/06/27 23:02:18.286, True, 1.989, 0.133516
2023/06/27 23:02:18.790, True, 1.990, 0.134203
2023/06/27 23:02:19.286, True, 2.022, 0.132601
2023/06/27 23:02:19.790, True, 1.990, 0.135119
2023/06/27 23:02:20.294, True, 2.321, 0.133364
2023/06/27 23:02:20.790, True, 2.022, 0.134051
2023/06/27 23:02:21.294, True, 1.990, 0.134203
2023/06/27 23:02:21.798, True, 1.989, 0.133745
2023/06/27 23:02:22.294, True, 2.022, 0.131991
2023/06/27 23:02:22.798, True, 1.991, 0.133516
2023/06/27 23:02:23.302, True, 1.987, 0.132067
2023/06/27 23:02:23.798, True, 2.022, 0.133745
2023/06/27 23:02:24.302, True, 1.990, 0.132982
2023/06/27 23:02:24.798, True, 2.022, 0.134356
2023/06/27 23:02:25.302, True, 1.989, 0.134966
2023/06/27 23:02:25.806, True, 1.990, 0.133059
2023/06/27 23:02:26.310, True, 1.990, 0.133898
2023/06/27 23:02:26.806, True, 2.359, 0.133364
2023/06/27 23:02:27.310, True, 1.994, 0.133822
2023/06/27 23:02:27.814, True, 1.986, 0.132677
2023/06/27 23:02:28.309, True, 2.025, 0.132448
2023/06/27 23:02:28.814, True, 2.317, 0.133822
2023/06/27 23:02:29.318, True, 1.990, 0.134051
2023/06/27 23:02:29.814, True, 2.021, 0.131075
2023/06/27 23:02:30.318, True, 1.990, 0.134203
2023/06/27 23:02:30.814, True, 2.022, 0.131533
2023/06/27 23:02:31.318, True, 2.321, 0.133135
2023/06/27 23:02:31.822, True, 1.990, 0.134356
2023/06/27 23:02:32.318, True, 2.022, 0.133974
2023/06/27 23:02:32.822, True, 1.990, 0.130846
2023/06/27 23:02:33.326, True, 1.989, 0.130236
2023/06/27 23:02:33.822, True, 2.022, 0.131838
2023/06/27 23:02:34.325, True, 1.990, 0.133059
2023/06/27 23:02:34.830, True, 1.991, 0.133440
2023/06/27 23:02:35.326, True, 2.020, 0.133211
2023/06/27 23:02:35.830, True, 1.990, 0.133898
2023/06/27 23:02:36.334, True, 1.989, 0.131533
2023/06/27 23:02:36.830, True, 2.359, 0.134813
2023/06/27 23:02:37.334, True, 1.990, 0.133059
2023/06/27 23:02:37.838, True, 1.658, 0.132219
2023/06/27 23:02:38.334, True, 2.022, 0.135119
2023/06/27 23:02:38.838, True, 1.992, 0.134127
2023/06/27 23:02:39.342, True, 1.987, 0.130159
2023/06/27 23:02:39.838, True, 2.022, 0.132219
2023/06/27 23:02:40.342, True, 2.325, 0.134203
2023/06/27 23:02:40.846, True, 1.986, 0.132753
2023/06/27 23:02:41.342, True, 2.022, 0.133669
2023/06/27 23:02:41.846, True, 1.992, 0.133898
2023/06/27 23:02:42.350, True, 2.322, 0.132525
2023/06/27 23:02:42.846, True, 1.683, 0.133898
2023/06/27 23:02:43.350, True, 1.992, 0.131228
2023/06/27 23:02:43.854, True, 1.986, 0.134737
2023/06/27 23:02:44.350, True, 2.025, 0.132906
2023/06/27 23:02:44.854, True, 1.986, 0.134432
2023/06/27 23:02:45.358, True, 1.990, 0.131685
2023/06/27 23:02:45.854, True, 2.025, 0.131914
2023/06/27 23:02:46.358, True, 2.317, 0.133288
2023/06/27 23:02:46.862, True, 1.992, 0.131685
2023/06/27 23:02:47.358, True, 2.020, 0.133898
2023/06/27 23:02:47.862, True, 1.990, 0.131380
2023/06/27 23:02:48.358, True, 2.022, 0.130999
2023/06/27 23:02:48.862, True, 1.989, 0.131456
2023/06/27 23:02:49.366, True, 2.321, 0.133822
2023/06/27 23:02:49.862, True, 1.685, 0.135042
2023/06/27 23:02:50.366, True, 1.990, 0.133516
2023/06/27 23:02:50.870, True, 1.990, 0.132067
2023/06/27 23:02:51.366, True, 2.022, 0.131991
2023/06/27 23:02:51.870, True, 1.990, 0.131380
2023/06/27 23:02:52.374, True, 1.990, 0.131380
2023/06/27 23:02:52.870, True, 2.022, 0.132067
2023/06/27 23:02:53.374, True, 1.989, 0.131075
2023/06/27 23:02:53.878, True, 1.990, 0.133059
2023/06/27 23:02:54.374, True, 2.023, 0.131838
2023/06/27 23:02:54.878, True, 1.989, 0.133364
2023/06/27 23:02:55.382, True, 1.993, 0.131991
2023/06/27 23:02:55.878, True, 2.018, 0.132067
2023/06/27 23:02:56.382, True, 1.990, 0.132143
2023/06/27 23:02:56.886, True, 1.990, 0.130541
2023/06/27 23:02:57.382, True, 2.022, 0.133593
2023/06/27 23:02:57.886, True, 1.990, 0.133440
2023/06/27 23:02:58.390, True, 2.322, 0.131533
2023/06/27 23:02:58.886, True, 2.023, 0.132448
2023/06/27 23:02:59.390, True, 1.987, 0.133288
2023/06/27 23:02:59.894, True, 1.990, 0.134432
2023/06/27 23:03:00.390, True, 2.022, 0.133440
2023/06/27 23:03:00.894, True, 1.990, 0.133135
2023/06/27 23:03:01.390, True, 2.022, 0.131609
2023/06/27 23:03:01.894, True, 1.990, 0.130846
2023/06/27 23:03:02.398, True, 2.321, 0.131304
2023/06/27 23:03:02.902, True, 1.990, 0.131228
2023/06/27 23:03:03.398, True, 2.024, 0.132906
2023/06/27 23:03:03.902, True, 1.988, 0.132448
2023/06/27 23:03:04.406, True, 2.320, 0.132525
2023/06/27 23:03:04.902, True, 2.022, 0.131380
2023/06/27 23:03:05.406, True, 1.989, 0.132372
2023/06/27 23:03:05.910, True, 1.990, 0.130770
2023/06/27 23:03:06.406, True, 2.359, 0.130541
2023/06/27 23:03:06.910, True, 1.992, 0.132296
2023/06/27 23:03:07.414, True, 1.987, 0.131914
2023/06/27 23:03:07.910, True, 2.022, 0.131151
2023/06/27 23:03:08.414, True, 1.993, 0.129854
2023/06/27 23:03:08.918, True, 2.319, 0.132830
2023/06/27 23:03:09.414, True, 2.022, 0.133135
2023/06/27 23:03:09.918, True, 1.992, 0.130846
2023/06/27 23:03:10.422, True, 1.986, 0.132067
2023/06/27 23:03:10.918, True, 2.359, 0.129320
2023/06/27 23:03:11.422, True, 1.989, 0.132296
2023/06/27 23:03:11.918, True, 2.022, 0.130846
2023/06/27 23:03:12.422, True, 1.989, 0.132296
2023/06/27 23:03:12.926, True, 1.990, 0.132067
2023/06/27 23:03:13.421, True, 2.359, 0.132830
2023/06/27 23:03:13.926, True, 1.993, 0.131914
2023/06/27 23:03:14.430, True, 1.986, 0.132753
2023/06/27 23:03:14.926, True, 2.024, 0.131914
2023/06/27 23:03:15.430, True, 1.987, 0.133211
2023/06/27 23:03:15.934, True, 1.990, 0.130617
2023/06/27 23:03:16.430, True, 2.021, 0.129168
2023/06/27 23:03:16.934, True, 1.992, 0.131228
2023/06/27 23:03:17.438, True, 1.989, 0.131228
2023/06/27 23:03:17.934, True, 1.683, 0.131838
2023/06/27 23:03:18.438, True, 1.992, 0.133364
2023/06/27 23:03:18.942, True, 1.656, 0.131533
2023/06/27 23:03:19.446, True, 1.989, 0.131762
2023/06/27 23:03:19.942, True, 2.022, 0.132296
2023/06/27 23:03:20.446, True, 1.990, 0.129931
2023/06/27 23:03:20.942, True, 1.685, 0.130999
2023/06/27 23:03:21.446, True, 1.990, 0.130922
2023/06/27 23:03:21.950, True, 1.989, 0.132219
2023/06/27 23:03:22.446, True, 2.021, 0.132753
2023/06/27 23:03:22.950, True, 1.990, 0.131685
2023/06/27 23:03:23.454, True, 1.989, 0.131838
2023/06/27 23:03:23.958, True, 1.989, 0.133211
2023/06/27 23:03:24.454, True, 2.022, 0.131685
2023/06/27 23:03:24.958, True, 2.322, 0.130770
2023/06/27 23:03:25.462, True, 1.989, 0.131914
2023/06/27 23:03:25.958, True, 2.024, 0.132830
2023/06/27 23:03:26.462, True, 1.987, 0.132982
2023/06/27 23:03:26.966, True, 2.321, 0.130236
2023/06/27 23:03:27.462, True, 2.022, 0.131762
2023/06/27 23:03:27.966, True, 1.990, 0.132982
2023/06/27 23:03:28.470, True, 1.989, 0.131991
2023/06/27 23:03:28.965, True, 2.022, 0.131380
2023/06/27 23:03:29.470, True, 1.992, 0.133745
2023/06/27 23:03:29.973, True, 2.318, 0.132830
2023/06/27 23:03:30.470, True, 2.025, 0.128023
2023/06/27 23:03:30.974, True, 1.987, 0.129320
2023/06/27 23:03:31.477, True, 1.989, 0.131151
2023/06/27 23:03:31.973, True, 2.022, 0.129931
2023/06/27 23:03:32.478, True, 1.993, 0.131762
2023/06/27 23:03:32.981, True, 1.986, 0.130083
2023/06/27 23:03:33.478, True, 2.022, 0.131304
2023/06/27 23:03:33.982, True, 1.990, 0.131609
2023/06/27 23:03:34.486, True, 1.989, 0.132601
2023/06/27 23:03:34.982, True, 2.026, 0.132677
2023/06/27 23:03:35.486, True, 1.655, 0.131762
2023/06/27 23:03:35.990, True, 1.992, 0.131991
2023/06/27 23:03:36.486, True, 2.355, 0.131685
2023/06/27 23:03:36.990, True, 1.990, 0.130694
2023/06/27 23:03:37.494, True, 1.990, 0.129625
2023/06/27 23:03:37.990, True, 2.022, 0.128481
2023/06/27 23:03:38.494, True, 1.990, 0.130465
2023/06/27 23:03:38.998, True, 1.989, 0.128328
2023/06/27 23:03:39.494, True, 2.022, 0.132219
2023/06/27 23:03:39.998, True, 1.989, 0.130694
2023/06/27 23:03:40.502, True, 1.990, 0.129702
2023/06/27 23:03:40.998, True, 2.023, 0.130541
2023/06/27 23:03:41.502, True, 2.320, 0.130999
2023/06/27 23:03:42.006, True, 1.990, 0.132372
2023/06/27 23:03:42.502, True, 2.022, 0.130159
2023/06/27 23:03:43.006, True, 1.990, 0.129320
2023/06/27 23:03:43.510, True, 1.989, 0.131762
2023/06/27 23:03:44.006, True, 2.024, 0.131075
2023/06/27 23:03:44.510, True, 1.988, 0.128710
2023/06/27 23:03:45.014, True, 1.991, 0.131456
2023/06/27 23:03:45.510, True, 2.020, 0.132296
2023/06/27 23:03:46.014, True, 1.992, 0.130922
2023/06/27 23:03:46.518, True, 1.987, 0.130846
2023/06/27 23:03:47.014, True, 2.022, 0.129549
2023/06/27 23:03:47.518, True, 1.989, 0.130999
2023/06/27 23:03:48.022, True, 1.990, 0.131685
2023/06/27 23:03:48.526, True, 1.992, 0.132067
2023/06/27 23:03:49.022, True, 2.019, 0.128023
2023/06/27 23:03:49.526, True, 1.990, 0.131075
2023/06/27 23:03:50.030, True, 1.990, 0.131151
2023/06/27 23:03:50.526, True, 1.685, 0.132143
2023/06/27 23:03:51.030, True, 1.991, 0.129244
2023/06/27 23:03:51.526, True, 2.020, 0.129625
2023/06/27 23:03:52.030, True, 1.990, 0.130083
2023/06/27 23:03:52.534, True, 1.990, 0.130846
2023/06/27 23:03:53.029, True, 2.025, 0.131075
2023/06/27 23:03:53.534, True, 1.986, 0.131380
2023/06/27 23:03:54.038, True, 1.990, 0.131609
2023/06/27 23:03:54.542, True, 1.990, 0.131838
2023/06/27 23:03:55.038, True, 2.022, 0.130465
2023/06/27 23:03:55.542, True, 2.321, 0.131533
2023/06/27 23:03:56.038, True, 2.022, 0.129778
2023/06/27 23:03:56.542, True, 1.990, 0.130007
2023/06/27 23:03:57.046, True, 1.660, 0.130236
2023/06/27 23:03:57.542, True, 2.020, 0.127565
2023/06/27 23:03:58.046, True, 1.989, 0.131685
2023/06/27 23:03:58.550, True, 1.990, 0.131304
2023/06/27 23:03:59.046, True, 2.358, 0.128252
2023/06/27 23:03:59.550, True, 1.992, 0.129702
2023/06/27 23:04:00.053, True, 1.991, 0.130541
2023/06/27 23:04:00.558, True, 1.986, 0.130083
2023/06/27 23:04:01.054, True, 2.359, 0.130159
2023/06/27 23:04:01.558, True, 1.989, 0.132143
2023/06/27 23:04:02.054, True, 2.023, 0.129320
2023/06/27 23:04:02.558, True, 1.988, 0.132143
2023/06/27 23:04:03.062, True, 1.990, 0.129397
2023/06/27 23:04:03.558, True, 2.022, 0.129015
2023/06/27 23:04:04.062, True, 1.990, 0.129625
2023/06/27 23:04:04.565, True, 1.658, 0.130541
2023/06/27 23:04:05.061, True, 2.022, 0.128862
2023/06/27 23:04:05.565, True, 1.990, 0.128099
2023/06/27 23:04:06.070, True, 1.990, 0.131685
2023/06/27 23:04:06.565, True, 1.685, 0.129854
2023/06/27 23:04:07.069, True, 1.990, 0.131533
2023/06/27 23:04:07.573, True, 1.989, 0.132296
2023/06/27 23:04:08.070, True, 2.022, 0.131914
2023/06/27 23:04:08.573, True, 1.990, 0.130541
2023/06/27 23:04:09.077, True, 1.991, 0.130236
2023/06/27 23:04:09.573, True, 2.021, 0.129854
2023/06/27 23:04:10.078, True, 1.990, 0.129397
2023/06/27 23:04:10.582, True, 1.989, 0.128405
2023/06/27 23:04:11.078, True, 2.025, 0.131838
2023/06/27 23:04:11.582, True, 1.989, 0.130694
2023/06/27 23:04:12.086, True, 1.988, 0.130236
2023/06/27 23:04:12.582, True, 1.684, 0.128710
2023/06/27 23:04:13.086, True, 1.991, 0.131304
2023/06/27 23:04:13.590, True, 1.990, 0.132448
2023/06/27 23:04:14.086, True, 1.684, 0.130465
2023/06/27 23:04:14.590, True, 1.991, 0.129473